This demonstration page uses our WeatherBlox Daily Observations layout. Learn more.

Left ArrowRight Arrow

Hourly Observations for January 4, 2018

Temp ( °F °C ) Dew Point ( °F °C ) Humidity (%) Winds ( mph kmh ) Pressure ( in mb ) Visibility ( mi km ) Precip ( " mm )
12:15 am 00:15 Cloudy 28 -2 16 -9 59 59 NNE 7 11 29.97 1015 10 16.0934 0 0
12:35 am 00:35 Cloudy 28 -2 14 -10 55 55 N 7 11 29.97 1015 10 16.0934 0 0
12:55 am 00:55 Cloudy 28 -2 14 -10 55 55 N 9 15 29.94 1014 10 16.0934 0 0
1:15 am 01:15 Cloudy 28 -2 14 -10 55 55 NNE 7 11 29.94 1014 10 16.0934 0 0
1:35 am 01:35 Cloudy 28 -2 14 -10 55 55 NNE 9 15 29.94 1014 10 16.0934 0 0
1:55 am 01:55 Cloudy 28 -2 14 -10 55 55 NE 6 9 29.91 1013 10 16.0934 0 0
2:15 am 02:15 Cloudy 28 -2 14 -10 55 55 NNE 6 9 29.91 1013 10 16.0934 0 0
2:35 am 02:35 Cloudy 28 -2 18 -8 64 64 N 15 24 29.91 1013 10 16.0934 0 0
2:55 am 02:55 Cloudy 28 -2 19 -7 69 69 N 14 22 29.88 1012 10 16.0934 0 0
3:15 am 03:15 Cloudy 28 -2 18 -8 64 64 N 15 24 29.88 1012 10 16.0934 0 0
3:35 am 03:35 Cloudy 28 -2 16 -9 59 59 N 15 24 29.85 1011 10 16.0934 0 0
3:55 am 03:55 Cloudy 28 -2 14 -10 55 55 N 20 31 29.83 1010 10 16.0934 0 0
4:15 am 04:15 Cloudy with Light Snow 28 -2 16 -9 59 59 N 15 24 29.83 1010 5 8.0467 0 0
4:35 am 04:35 Cloudy with Light Snow 25 -4 19 -7 80 80 N 15 24 29.83 1010 3 4.82802 0 0
4:55 am 04:55 Cloudy with Light Snow 25 -4 19 -7 80 80 N 13 20 29.83 1010 3 4.82802 0 0
5:15 am 05:15 Cloudy with Light Snow 25 -4 19 -7 80 80 N 17 28 29.8 1009 5 8.0467 0 0
5:35 am 05:35 Cloudy 25 -4 19 -7 80 80 N 12 19 29.8 1009 10 16.0934 0 0
5:55 am 05:55 Cloudy 27 -3 18 -8 69 69 N 20 31 29.77 1008 10 16.0934 0 0
6:15 am 06:15 Cloudy 27 -3 18 -8 69 69 N 20 31 29.77 1008 10 16.0934 0 0
6:35 am 06:35 Cloudy 27 -3 18 -8 69 69 N 17 28 29.77 1008 10 16.0934 0 0
6:55 am 06:55 Cloudy 27 -3 18 -8 69 69 NNW 21 33 29.77 1008 10 16.0934 0 0
7:15 am 07:15 Cloudy 25 -4 18 -8 74 74 NNW 25 41 29.74 1007 10 16.0934 0 0
7:35 am 07:35 Cloudy 25 -4 16 -9 69 69 N 23 37 29.74 1007 10 16.0934 0 0
7:55 am 07:55 Cloudy 25 -4 14 -10 63 63 NNW 23 37 29.74 1007 10 16.0934 0 0
8:15 am 08:15 Cloudy 25 -4 14 -10 63 63 NNW 31 50 29.74 1007 10 16.0934 0 0
8:35 am 08:35 Cloudy 25 -4 14 -10 63 63 NNW 24 39 29.74 1007 10 16.0934 0 0
8:55 am 08:55 Cloudy 27 -3 14 -10 59 59 NNW 25 41 29.77 1008 10 16.0934 0 0
9:15 am 09:15 Cloudy 27 -3 14 -10 59 59 NNW 18 30 29.77 1008 10 16.0934 0 0
9:35 am 09:35 Cloudy 27 -3 14 -10 59 59 NNW 17 28 29.77 1008 10 16.0934 0 0
9:55 am 09:55 Windy with Snow Likely 27 -3 14 -10 59 59 NNW 21 33 29.77 1008 10 16.0934 0 0
10:15 am 10:15 Cloudy with Light Snow 27 -3 14 -10 59 59 NNW 18 30 29.77 1008 7 11.26538 0 0
10:35 am 10:35 Windy with Snow Likely 27 -3 14 -10 59 59 NNW 21 33 29.77 1008 10 16.0934 0 0
10:55 am 10:55 Cloudy 27 -3 14 -10 59 59 NNW 24 39 29.77 1008 10 16.0934 0 0
11:15 am 11:15 Cloudy 27 -3 14 -10 59 59 NNW 29 46 29.74 1007 10 16.0934 0 0
11:35 am 11:35 Cloudy 27 -3 14 -10 59 59 NNW 24 39 29.74 1007 10 16.0934 0 0
11:55 am 11:55 Cloudy 27 -3 14 -10 59 59 NNW 28 44 29.74 1007 10 16.0934 0 0
12:15 pm 12:15 Cloudy 27 -3 12 -11 54 54 NNW 32 52 29.71 1006 10 16.0934 0 0
12:35 pm 12:35 Cloudy 27 -3 12 -11 54 54 NNW 31 50 29.71 1006 10 16.0934 0 0
12:55 pm 12:55 Cloudy 28 -2 12 -11 51 51 NNW 24 39 29.71 1006 10 16.0934 0 0
1:15 pm 13:15 Cloudy 28 -2 10 -12 47 47 NNW 33 54 29.71 1006 10 16.0934 0 0
1:35 pm 13:35 Cloudy 28 -2 12 -11 51 51 NNW 31 50 29.71 1006 10 16.0934 0 0
1:55 pm 13:55 Cloudy 28 -2 9 -13 43 43 NNW 31 50 29.71 1006 10 16.0934 0 0
2:15 pm 14:15 Cloudy 28 -2 10 -12 47 47 NNW 22 35 29.71 1006 10 16.0934 0 0
2:35 pm 14:35 Cloudy 27 -3 10 -12 50 50 NW 25 41 29.74 1007 10 16.0934 0 0
2:55 pm 14:55 Cloudy 28 -2 10 -12 47 47 NNW 24 39 29.74 1007 10 16.0934 0 0
3:15 pm 15:15 Cloudy 28 -2 9 -13 43 43 NNW 24 39 29.74 1007 10 16.0934 0 0
3:35 pm 15:35 Mostly Cloudy 27 -3 9 -13 46 46 NNW 24 39 29.77 1008 10 16.0934 0 0
3:55 pm 15:55 Partly Cloudy 27 -3 7 -14 43 43 WNW 25 41 29.77 1008 10 16.0934 0 0
4:15 pm 16:15 Partly Cloudy 25 -4 7 -14 46 46 NW 26 43 29.77 1008 10 16.0934 0 0
4:35 pm 16:35 Partly Cloudy 23 -5 5 -15 46 46 NW 26 43 29.77 1008 10 16.0934 0 0
4:55 pm 16:55 Partly Cloudy 23 -5 5 -15 46 46 NW 18 30 29.8 1009 10 16.0934 0 0
5:15 pm 17:15 Partly Cloudy 23 -5 5 -15 46 46 NW 18 30 29.8 1009 10 16.0934 0 0
5:35 pm 17:35 Clear 21 -6 5 -15 49 49 NW 28 44 29.8 1009 10 16.0934 0 0
5:55 pm 17:55 Clear 21 -6 5 -15 49 49 WNW 30 48 29.83 1010 10 16.0934 0 0
6:15 pm 18:15 Clear 21 -6 5 -15 49 49 NW 26 43 29.83 1010 10 16.0934 0 0
6:35 pm 18:35 Partly Cloudy 19 -7 5 -15 53 53 NW 28 44 29.83 1010 10 16.0934 0 0
6:55 pm 18:55 Partly Cloudy 19 -7 5 -15 53 53 NW 22 35 29.85 1011 10 16.0934 0 0
7:15 pm 19:15 Mostly Cloudy 19 -7 5 -15 53 53 NW 22 35 29.85 1011 10 16.0934 0 0
7:35 pm 19:35 Mostly Cloudy 19 -7 3 -16 49 49 NW 22 35 29.88 1012 10 16.0934 0 0
7:55 pm 19:55 Mostly Cloudy 19 -7 3 -16 49 49 NW 23 37 29.88 1012 10 16.0934 0 0
8:15 pm 20:15 Partly Cloudy 19 -7 3 -16 49 49 NW 16 26 29.91 1013 10 16.0934 0 0
8:35 pm 20:35 Partly Cloudy 19 -7 1 -17 45 45 NNW 28 44 29.91 1013 10 16.0934 0 0
8:55 pm 20:55 Partly Cloudy 18 -8 1 -17 49 49 NW 23 37 29.91 1013 10 16.0934 0 0
9:15 pm 21:15 Partly Cloudy 18 -8 1 -17 49 49 NW 21 33 29.94 1014 10 16.0934 0 0
9:35 pm 21:35 Partly Cloudy 18 -8 0 -18 45 45 NW 26 43 29.91 1013 10 16.0934 0 0
9:55 pm 21:55 Clear 18 -8 0 -18 45 45 NW 23 37 29.94 1014 10 16.0934 0 0
10:15 pm 22:15 Clear 18 -8 0 -18 45 45 WNW 9 15 29.94 1014 10 16.0934 0 0
10:35 pm 22:35 Clear 18 -8 1 -17 49 49 NW 20 31 29.94 1014 10 16.0934 0 0
10:55 pm 22:55 Clear 16 -9 1 -17 53 53 NW 29 46 29.97 1015 10 16.0934 0 0
11:15 pm 23:15 Clear 16 -9 0 -18 48 48 WNW 25 41 29.94 1014 10 16.0934 0 0
11:35 pm 23:35 Partly Cloudy 16 -9 0 -18 48 48 undefined N/A 29.97 1015 10 16.0934 0 0
11:55 pm 23:55 Partly Cloudy 16 -9 0 -18 48 48 undefined N/A 29.97 1015 10 16.0934 0 0

Powered by AerisWeather